Time,TemperatureF,DewpointF,PressureIn,WindDirection,WindDirectionDegrees,WindSpeedMPH,WindSpeedGustMPH,Humidity,HourlyPrecipIn,Conditions,Clouds,dailyrainin,SoftwareType,DateUTC
2013-03-03 00:00:00,22.5,17.5,29.86,NNW,338,1.1,1.1,81,0.00,,OVC,0.00,WeatherDisplay:10.37,2013-03-03 05:00:00,
2013-03-03 00:05:00,22.5,17.5,29.86,NNW,338,1.8,2.2,81,0.00,,OVC,0.00,WeatherDisplay:10.37,2013-03-03 05:05:00,
2013-03-03 00:10:00,22.5,17.5,29.86,NNW,338,1.4,2.2,81,0.00,,OVC,0.00,WeatherDisplay:10.37,2013-03-03 05:10:00,
2013-03-03 00:15:00,22.5,17.5,29.86,NNW,338,2.5,2.7,81,0.00,,OVC,0.00,WeatherDisplay:10.37,2013-03-03 05:15:00,
2013-03-03 00:20:00,22.3,17.4,29.86,NNW,338,1.9,2.3,81,0.00,,OVC,0.00,WeatherDisplay:10.37,2013-03-03 05:20:00,
2013-03-03 00:25:00,22.3,17.4,29.86,NNW,338,2.2,2.3,81,0.00,,OVC,0.00,WeatherDisplay:10.37,2013-03-03 05:25:00,
2013-03-03 00:30:00,22.3,17.4,29.86,NNW,338,2.4,3.5,81,0.00,,OVC,0.00,WeatherDisplay:10.37,2013-03-03 05:30:00,
2013-03-03 00:35:00,22.3,17.4,29.86,NNW,338,1.8,2.7,81,0.00,,OVC,0.00,WeatherDisplay:10.37,2013-03-03 05:35:00,
2013-03-03 00:40:00,22.3,17.4,29.86,NNW,338,1.9,2.3,81,0.00,,OVC,0.00,WeatherDisplay:10.37,2013-03-03 05:40:00,
2013-03-03 00:45:00,22.3,17.4,29.86,NNW,338,0.5,0.0,81,0.00,,OVC,0.00,WeatherDisplay:10.37,2013-03-03 05:45:00,
2013-03-03 00:50:00,22.3,17.4,29.86,NNW,338,1.0,1.7,81,0.00,,OVC,0.00,WeatherDisplay:10.37,2013-03-03 05:50:00,
2013-03-03 00:55:00,22.3,17.4,29.86,NNW,338,2.0,2.3,81,0.00,,OVC,0.00,WeatherDisplay:10.37,2013-03-03 05:55:00,
2013-03-03 01:00:00,22.3,17.4,29.86,NNW,338,2.1,2.3,81,0.00,,OVC,0.00,WeatherDisplay:10.37,2013-03-03 06:00:00,
2013-03-03 01:05:00,22.3,17.4,29.86,NNW,338,2.5,3.5,81,0.00,,OVC,0.00,WeatherDisplay:10.37,2013-03-03 06:05:00,
2013-03-03 01:10:00,22.3,17.4,29.86,NNW,338,1.8,3.5,81,0.00,,OVC,0.00,WeatherDisplay:10.37,2013-03-03 06:10:00,
2013-03-03 01:15:00,22.3,17.4,29.86,NNW,338,3.1,3.2,81,0.00,,OVC,0.00,WeatherDisplay:10.37,2013-03-03 06:15:00,
2013-03-03 01:20:00,22.1,17.2,29.86,NNW,338,2.0,2.3,81,0.00,,OVC,0.00,WeatherDisplay:10.37,2013-03-03 06:20:00,
2013-03-03 01:25:00,22.1,17.2,29.86,NNW,338,1.2,2.3,81,0.00,,OVC,0.00,WeatherDisplay:10.37,2013-03-03 06:25:00,
2013-03-03 01:30:00,22.1,17.2,29.86,NNW,338,2.6,3.5,81,0.00,,OVC,0.00,WeatherDisplay:10.37,2013-03-03 06:30:00,
2013-03-03 01:35:00,22.1,17.2,29.86,NNW,338,2.9,3.5,81,0.00,,OVC,0.00,WeatherDisplay:10.37,2013-03-03 06:35:00,
2013-03-03 01:41:00,22.1,16.9,29.86,NNW,338,3.0,4.6,80,0.00,,OVC,0.00,WeatherDisplay:10.37,2013-03-03 06:41:00,
2013-03-03 01:45:00,22.1,16.9,29.86,NNW,338,1.0,2.3,80,0.00,,OVC,0.00,WeatherDisplay:10.37,2013-03-03 06:45:00,
2013-03-03 01:51:00,22.1,16.9,29.86,NNW,338,2.6,3.5,80,0.00,,OVC,0.00,WeatherDisplay:10.37,2013-03-03 06:51:00,
2013-03-03 01:56:00,22.1,17.2,29.86,NNW,338,0.2,3.5,81,0.00,,OVC,0.00,WeatherDisplay:10.37,2013-03-03 06:56:00,
2013-03-03 02:01:00,22.1,17.2,29.85,NNW,338,1.8,2.7,81,0.00,,OVC,0.00,WeatherDisplay:10.37,2013-03-03 07:01:00,
2013-03-03 02:06:00,22.1,17.2,29.85,NNW,338,1.7,2.7,81,0.00,,OVC,0.00,WeatherDisplay:10.37,2013-03-03 07:06:00,
2013-03-03 02:11:00,22.1,17.2,29.85,NNW,338,2.2,2.7,81,0.00,,OVC,0.00,WeatherDisplay:10.37,2013-03-03 07:11:00,
2013-03-03 02:16:00,22.1,16.9,29.85,NNW,338,2.3,3.5,80,0.00,,OVC,0.00,WeatherDisplay:10.37,2013-03-03 07:16:00,
2013-03-03 02:21:00,22.1,16.9,29.85,NNW,338,0.0,1.1,80,0.00,,OVC,0.00,WeatherDisplay:10.37,2013-03-03 07:21:00,
2013-03-03 02:26:00,22.1,16.9,29.85,NNW,338,0.8,2.3,80,0.00,,OVC,0.00,WeatherDisplay:10.37,2013-03-03 07:26:00,
2013-03-03 02:31:00,22.1,16.9,29.85,NNW,338,2.2,2.3,80,0.00,,OVC,0.00,WeatherDisplay:10.37,2013-03-03 07:31:00,
2013-03-03 02:36:00,21.9,16.7,29.85,NNW,338,2.4,2.4,80,0.00,,OVC,0.00,WeatherDisplay:10.37,2013-03-03 07:36:00,
2013-03-03 02:41:00,21.9,16.4,29.85,NNW,338,2.1,2.3,79,0.00,,OVC,0.00,WeatherDisplay:10.37,2013-03-03 07:41:00,
2013-03-03 02:46:00,21.9,16.4,29.85,NNW,338,0.6,2.3,79,0.00,,OVC,0.00,WeatherDisplay:10.37,2013-03-03 07:46:00,
2013-03-03 02:51:00,21.9,16.4,29.84,NNW,338,0.9,2.3,79,0.00,,OVC,0.00,WeatherDisplay:10.37,2013-03-03 07:51:00,
2013-03-03 02:56:00,21.9,16.4,29.84,NNW,338,1.9,2.3,79,0.00,,OVC,0.00,WeatherDisplay:10.37,2013-03-03 07:56:00,
2013-03-03 03:01:00,21.9,16.4,29.84,NNW,338,2.1,2.3,79,0.00,,OVC,0.00,WeatherDisplay:10.37,2013-03-03 08:01:00,
2013-03-03 03:06:00,21.7,16.2,29.84,NNW,338,1.8,3.5,79,0.00,,OVC,0.00,WeatherDisplay:10.37,2013-03-03 08:06:00,
2013-03-03 03:11:00,21.7,16.2,29.84,NNW,338,2.6,3.5,79,0.00,,OVC,0.00,WeatherDisplay:10.37,2013-03-03 08:11:00,
2013-03-03 03:16:00,21.7,16.2,29.84,NNW,338,3.0,3.5,79,0.00,,OVC,0.00,WeatherDisplay:10.37,2013-03-03 08:16:00,
2013-03-03 03:21:00,21.7,16.5,29.84,NNW,338,2.2,2.3,80,0.00,,OVC,0.00,WeatherDisplay:10.37,2013-03-03 08:21:00,
2013-03-03 03:26:00,21.7,16.5,29.83,NNW,338,0.9,1.1,80,0.00,,OVC,0.00,WeatherDisplay:10.37,2013-03-03 08:26:00,
2013-03-03 03:31:00,21.7,16.8,29.83,NNW,338,0.0,0.0,81,0.00,,OVC,0.00,WeatherDisplay:10.37,2013-03-03 08:31:00,
2013-03-03 03:36:00,21.6,17.0,29.83,NNW,338,3.1,3.5,82,0.00,,OVC,0.00,WeatherDisplay:10.37,2013-03-03 08:36:00,
2013-03-03 03:41:00,21.6,17.2,29.83,NNW,338,2.5,2.5,83,0.00,,OVC,0.00,WeatherDisplay:10.37,2013-03-03 08:41:00,
2013-03-03 03:46:00,21.4,17.3,29.83,NNW,338,2.3,3.5,84,0.00,,OVC,0.00,WeatherDisplay:10.37,2013-03-03 08:46:00,
2013-03-03 03:51:00,21.2,17.4,29.83,NNW,338,2.2,2.3,85,0.00,,OVC,0.00,WeatherDisplay:10.37,2013-03-03 08:51:00,
2013-03-03 03:56:00,21.2,17.7,29.83,NNW,338,0.0,0.0,86,0.00,,OVC,0.00,WeatherDisplay:10.37,2013-03-03 08:56:00,
2013-03-03 04:01:00,21.2,17.7,29.83,NNW,338,1.7,1.7,86,0.00,,OVC,0.00,WeatherDisplay:10.37,2013-03-03 09:01:00,
2013-03-03 04:06:00,21.0,17.7,29.83,NNW,338,2.0,2.3,87,0.00,,OVC,0.00,WeatherDisplay:10.37,2013-03-03 09:06:00,
2013-03-03 04:11:00,21.0,17.7,29.83,NNW,338,1.1,1.1,87,0.00,,OVC,0.00,WeatherDisplay:10.37,2013-03-03 09:11:00,
2013-03-03 04:16:00,21.0,18.0,29.84,NNW,338,0.0,0.0,88,0.00,,OVC,0.00,WeatherDisplay:10.37,2013-03-03 09:16:00,
2013-03-03 04:21:00,20.8,17.8,29.84,NNW,338,1.8,2.3,88,0.00,,OVC,0.00,WeatherDisplay:10.37,2013-03-03 09:21:00,
2013-03-03 04:26:00,20.8,17.8,29.84,NNW,338,1.7,2.3,88,0.00,,OVC,0.00,WeatherDisplay:10.37,2013-03-03 09:26:00,
2013-03-03 04:31:00,20.8,17.8,29.84,NNW,338,0.6,1.1,88,0.00,,OVC,0.00,WeatherDisplay:10.37,2013-03-03 09:31:00,
2013-03-03 04:36:00,20.8,18.1,29.84,NNW,338,1.2,1.2,89,0.00,,OVC,0.00,WeatherDisplay:10.37,2013-03-03 09:36:00,
2013-03-03 04:41:00,20.8,18.1,29.84,NNW,338,0.5,1.1,89,0.00,,OVC,0.00,WeatherDisplay:10.37,2013-03-03 09:41:00,
2013-03-03 04:46:00,20.8,18.1,29.84,NNW,338,1.3,1.3,89,0.00,,OVC,0.00,WeatherDisplay:10.37,2013-03-03 09:46:00,
2013-03-03 04:51:00,20.8,18.1,29.84,NNW,338,0.0,0.0,89,0.00,,OVC,0.00,WeatherDisplay:10.37,2013-03-03 09:51:00,
2013-03-03 04:56:00,20.8,18.1,29.84,NNW,338,1.5,1.5,89,0.00,,OVC,0.00,WeatherDisplay:10.37,2013-03-03 09:56:00,
2013-03-03 05:01:00,20.8,18.1,29.84,NNW,338,0.0,0.0,89,0.00,,OVC,0.00,WeatherDisplay:10.37,2013-03-03 10:01:00,
2013-03-03 05:06:00,20.8,18.1,29.84,NNW,338,0.4,1.1,89,0.00,,OVC,0.00,WeatherDisplay:10.37,2013-03-03 10:06:00,
2013-03-03 05:11:00,20.8,18.1,29.84,NNW,338,0.0,0.0,89,0.00,,OVC,0.00,WeatherDisplay:10.37,2013-03-03 10:11:00,
2013-03-03 05:16:00,20.7,18.2,29.84,NNW,338,1.1,2.3,90,0.00,,OVC,0.00,WeatherDisplay:10.37,2013-03-03 10:16:00,
2013-03-03 05:21:00,20.7,18.2,29.84,NNW,338,2.0,2.3,90,0.00,,OVC,0.00,WeatherDisplay:10.37,2013-03-03 10:21:00,
2013-03-03 05:26:00,20.5,18.0,29.84,NNW,338,0.0,0.0,90,0.00,,OVC,0.00,WeatherDisplay:10.37,2013-03-03 10:26:00,
2013-03-03 05:31:00,20.5,18.0,29.84,NNW,338,2.5,3.2,90,0.00,,OVC,0.00,WeatherDisplay:10.37,2013-03-03 10:31:00,
2013-03-03 05:36:00,20.3,17.8,29.84,NNW,338,1.4,2.3,90,0.00,,OVC,0.00,WeatherDisplay:10.37,2013-03-03 10:36:00,
2013-03-03 05:41:00,20.3,17.8,29.84,NNW,338,0.0,0.0,90,0.00,,OVC,0.00,WeatherDisplay:10.37,2013-03-03 10:41:00,
2013-03-03 05:46:00,20.1,17.6,29.84,NNW,338,0.5,2.3,90,0.00,,OVC,0.00,WeatherDisplay:10.37,2013-03-03 10:46:00,
2013-03-03 05:51:00,19.9,17.4,29.85,NNW,338,1.9,3.5,90,0.00,,OVC,0.00,WeatherDisplay:10.37,2013-03-03 10:51:00,
2013-03-03 05:56:00,19.9,17.4,29.85,NNW,338,2.5,2.7,90,0.00,,OVC,0.00,WeatherDisplay:10.37,2013-03-03 10:56:00,
2013-03-03 06:01:00,19.9,17.4,29.85,NNW,338,2.5,3.5,90,0.00,,OVC,0.00,WeatherDisplay:10.37,2013-03-03 11:01:00,
2013-03-03 06:06:00,19.9,17.4,29.85,NNW,338,1.9,2.3,90,0.00,,OVC,0.00,WeatherDisplay:10.37,2013-03-03 11:06:00,
2013-03-03 06:11:00,19.9,17.4,29.85,NNW,338,1.7,2.3,90,0.00,,OVC,0.00,WeatherDisplay:10.37,2013-03-03 11:11:00,
2013-03-03 06:16:00,19.9,17.4,29.85,NNW,338,2.7,3.5,90,0.00,,OVC,0.00,WeatherDisplay:10.37,2013-03-03 11:16:00,
2013-03-03 06:21:00,19.9,17.4,29.85,NNW,338,2.1,2.3,90,0.00,,OVC,0.00,WeatherDisplay:10.37,2013-03-03 11:21:00,
2013-03-03 06:26:00,19.9,17.4,29.85,NNW,338,1.5,1.5,90,0.00,,OVC,0.00,WeatherDisplay:10.37,2013-03-03 11:26:00,
2013-03-03 06:31:00,19.9,17.4,29.85,NNW,338,1.4,2.2,90,0.00,,OVC,0.00,WeatherDisplay:10.37,2013-03-03 11:31:00,
2013-03-03 06:36:00,20.1,17.4,29.85,NNW,338,1.6,2.3,89,0.00,,OVC,0.00,WeatherDisplay:10.37,2013-03-03 11:36:00,
2013-03-03 06:41:00,20.1,17.4,29.85,NNW,338,0.8,2.2,89,0.00,,OVC,0.00,WeatherDisplay:10.37,2013-03-03 11:41:00,
2013-03-03 06:46:00,20.1,17.4,29.85,NNW,338,1.9,2.3,89,0.00,,OVC,0.00,WeatherDisplay:10.37,2013-03-03 11:46:00,
2013-03-03 06:51:00,20.1,17.1,29.85,NNW,338,1.2,1.7,88,0.00,,OVC,0.00,WeatherDisplay:10.37,2013-03-03 11:51:00,
2013-03-03 06:56:00,20.1,17.1,29.85,NNW,338,2.2,2.3,88,0.00,,OVC,0.00,WeatherDisplay:10.37,2013-03-03 11:56:00,
2013-03-03 07:01:00,20.3,17.3,29.85,NNW,338,2.0,2.3,88,0.00,,OVC,0.00,WeatherDisplay:10.37,2013-03-03 12:01:00,
2013-03-03 07:06:00,20.3,17.0,29.85,NNW,338,2.0,2.3,87,0.00,,OVC,0.00,WeatherDisplay:10.37,2013-03-03 12:06:00,
2013-03-03 07:11:00,20.3,17.0,29.85,NNW,338,2.1,3.2,87,0.00,,OVC,0.00,WeatherDisplay:10.37,2013-03-03 12:11:00,
2013-03-03 07:16:00,20.5,17.2,29.86,NNW,338,1.3,1.3,87,0.00,,OVC,0.00,WeatherDisplay:10.37,2013-03-03 12:16:00,
2013-03-03 07:21:00,20.8,17.5,29.86,NNW,338,1.3,2.7,87,0.00,,OVC,0.00,WeatherDisplay:10.37,2013-03-03 12:21:00,
2013-03-03 07:26:00,21.0,17.5,29.86,NNW,338,1.0,2.3,86,0.00,,OVC,0.00,WeatherDisplay:10.37,2013-03-03 12:26:00,
2013-03-03 07:31:00,21.2,17.7,29.86,NNW,338,2.0,3.5,86,0.00,,OVC,0.00,WeatherDisplay:10.37,2013-03-03 12:31:00,
2013-03-03 07:36:00,21.2,17.7,29.86,NNW,338,2.3,2.3,86,0.00,,OVC,0.00,WeatherDisplay:10.37,2013-03-03 12:36:00,
2013-03-03 07:41:00,21.6,18.1,29.86,NNW,338,2.0,2.3,86,0.00,,OVC,0.00,WeatherDisplay:10.37,2013-03-03 12:41:00,
2013-03-03 07:46:00,21.7,17.9,29.86,NNW,338,2.8,4.6,85,0.00,,OVC,0.00,WeatherDisplay:10.37,2013-03-03 12:46:00,
2013-03-03 07:51:00,21.9,18.1,29.86,NNW,338,1.7,2.3,85,0.00,,OVC,0.00,WeatherDisplay:10.37,2013-03-03 12:51:00,
2013-03-03 07:56:00,22.5,18.1,29.86,NNW,338,0.4,1.7,83,0.00,,OVC,0.00,WeatherDisplay:10.37,2013-03-03 12:56:00,
2013-03-03 08:01:00,22.6,18.2,29.86,NNW,338,2.2,2.3,83,0.00,,OVC,0.00,WeatherDisplay:10.37,2013-03-03 13:01:00,
2013-03-03 08:06:00,23.0,18.6,29.86,NNW,338,1.5,1.7,83,0.00,,OVC,0.00,WeatherDisplay:10.37,2013-03-03 13:06:00,
2013-03-03 08:11:00,23.5,18.8,29.86,NNW,338,0.3,2.3,82,0.00,,OVC,0.00,WeatherDisplay:10.37,2013-03-03 13:11:00,
2013-03-03 08:16:00,24.1,18.8,29.86,NNW,338,1.6,2.7,80,0.00,,OVC,0.00,WeatherDisplay:10.37,2013-03-03 13:16:00,
2013-03-03 08:21:00,23.9,18.6,29.86,NNW,338,2.8,3.5,80,0.00,,OVC,0.00,WeatherDisplay:10.37,2013-03-03 13:21:00,
2013-03-03 08:26:00,24.4,18.8,29.86,NNW,338,0.9,1.7,79,0.00,,OVC,0.00,WeatherDisplay:10.37,2013-03-03 13:26:00,
2013-03-03 08:31:00,24.8,18.9,29.86,NNW,338,1.8,3.2,78,0.00,,OVC,0.00,WeatherDisplay:10.37,2013-03-03 13:31:00,
2013-03-03 08:36:00,25.3,19.4,29.86,NNW,338,1.7,1.7,78,0.00,,OVC,0.00,WeatherDisplay:10.37,2013-03-03 13:36:00,
2013-03-03 08:41:00,25.9,20.0,29.86,NNW,338,1.2,1.2,78,0.00,,OVC,0.00,WeatherDisplay:10.37,2013-03-03 13:41:00,
2013-03-03 08:47:00,25.9,19.7,29.86,NNW,338,2.4,2.7,77,0.00,,OVC,0.00,WeatherDisplay:10.37,2013-03-03 13:47:00,
2013-03-03 08:51:00,25.9,19.7,29.85,NNW,338,1.7,2.3,77,0.00,,OVC,0.00,WeatherDisplay:10.37,2013-03-03 13:51:00,
2013-03-03 08:57:00,25.3,19.4,29.85,NNW,338,2.2,4.6,78,0.00,,OVC,0.00,WeatherDisplay:10.37,2013-03-03 13:57:00,
2013-03-03 09:02:00,25.3,19.4,29.86,NNW,338,1.9,3.5,78,0.00,,OVC,0.00,WeatherDisplay:10.37,2013-03-03 14:02:00,
2013-03-03 09:07:00,25.7,19.8,29.86,NNW,338,2.4,2.7,78,0.00,,OVC,0.00,WeatherDisplay:10.37,2013-03-03 14:07:00,
2013-03-03 09:12:00,26.2,20.0,29.86,NNW,338,0.6,2.3,77,0.00,,OVC,0.00,WeatherDisplay:10.37,2013-03-03 14:12:00,
2013-03-03 09:17:00,27.1,20.2,29.86,NNW,338,2.7,2.7,75,0.00,,OVC,0.00,WeatherDisplay:10.37,2013-03-03 14:17:00,
2013-03-03 09:22:00,27.5,20.6,29.86,NNW,338,1.7,2.3,75,0.00,,OVC,0.00,WeatherDisplay:10.37,2013-03-03 14:22:00,
2013-03-03 09:27:00,27.3,20.7,29.86,NE,45,2.2,2.3,76,0.00,,OVC,0.00,WeatherDisplay:10.37,2013-03-03 14:27:00,
2013-03-03 09:32:00,27.7,20.8,29.86,NNW,338,1.4,3.5,75,0.00,,OVC,0.00,WeatherDisplay:10.37,2013-03-03 14:32:00,
2013-03-03 09:37:00,27.3,20.4,29.85,NE,45,2.1,3.7,75,0.00,,OVC,0.00,WeatherDisplay:10.37,2013-03-03 14:37:00,
2013-03-03 09:42:00,27.0,20.4,29.85,NE,45,1.4,2.3,76,0.00,,OVC,0.00,WeatherDisplay:10.37,2013-03-03 14:42:00,
2013-03-03 09:47:00,26.6,20.4,29.85,NE,45,1.9,2.3,77,0.00,,OVC,0.00,WeatherDisplay:10.37,2013-03-03 14:47:00,
2013-03-03 09:52:00,27.1,20.8,29.86,NE,45,2.1,2.7,77,0.00,,OVC,0.00,WeatherDisplay:10.37,2013-03-03 14:52:00,
2013-03-03 09:57:00,26.6,20.7,29.86,NNW,338,3.0,3.5,78,0.00,,OVC,0.00,WeatherDisplay:10.37,2013-03-03 14:57:00,
2013-03-03 10:02:00,26.6,21.3,29.85,NNW,338,2.9,4.6,80,0.00,,OVC,0.00,WeatherDisplay:10.37,2013-03-03 15:02:00,
2013-03-03 10:07:00,27.0,21.4,29.85,NW,315,3.1,3.5,79,0.00,,OVC,0.00,WeatherDisplay:10.37,2013-03-03 15:07:00,
2013-03-03 10:12:00,26.4,21.4,29.85,NW,315,4.3,5.8,81,0.00,,OVC,0.00,WeatherDisplay:10.37,2013-03-03 15:12:00,
2013-03-03 10:17:00,25.5,21.6,29.85,NW,315,5.3,5.8,85,0.00,,OVC,0.00,WeatherDisplay:10.37,2013-03-03 15:17:00,
2013-03-03 10:22:00,25.7,22.1,29.85,WNW,292,4.3,4.6,86,0.00,,OVC,0.00,WeatherDisplay:10.37,2013-03-03 15:22:00,
2013-03-03 10:27:00,26.1,22.5,29.85,WNW,292,3.3,3.5,86,0.00,,OVC,0.00,WeatherDisplay:10.37,2013-03-03 15:27:00,
2013-03-03 10:32:00,26.4,22.2,29.85,NW,315,4.2,6.9,84,0.00,,OVC,0.00,WeatherDisplay:10.37,2013-03-03 15:32:00,
2013-03-03 10:37:00,26.2,21.2,29.85,NNE,22,3.1,4.6,81,0.00,,OVC,0.00,WeatherDisplay:10.37,2013-03-03 15:37:00,
2013-03-03 10:42:00,26.1,21.1,29.85,NNW,338,3.6,4.6,81,0.00,,OVC,0.00,WeatherDisplay:10.37,2013-03-03 15:42:00,
2013-03-03 10:47:00,27.0,21.1,29.85,NW,315,3.7,4.6,78,0.00,,OVC,0.00,WeatherDisplay:10.37,2013-03-03 15:47:00,
2013-03-03 10:52:00,26.8,20.6,29.85,West,270,4.3,5.8,77,0.00,,OVC,0.00,WeatherDisplay:10.37,2013-03-03 15:52:00,
2013-03-03 10:57:00,28.2,21.3,29.85,WNW,292,4.7,7.3,75,0.00,,OVC,0.00,WeatherDisplay:10.37,2013-03-03 15:57:00,
2013-03-03 11:02:00,27.0,19.8,29.85,North,360,4.3,5.8,74,0.00,,OVC,0.00,WeatherDisplay:10.37,2013-03-03 16:02:00,
2013-03-03 11:07:00,26.8,19.9,29.85,NW,315,4.1,4.6,75,0.00,,OVC,0.00,WeatherDisplay:10.37,2013-03-03 16:07:00,
2013-03-03 11:12:00,27.1,19.9,29.85,WNW,292,5.1,6.9,74,0.00,,OVC,0.00,WeatherDisplay:10.37,2013-03-03 16:12:00,
2013-03-03 11:17:00,27.7,20.5,29.85,West,270,4.4,5.8,74,0.00,,OVC,0.00,WeatherDisplay:10.37,2013-03-03 16:17:00,
2013-03-03 11:22:00,27.5,20.6,29.85,NW,315,5.0,7.3,75,0.00,,OVC,0.00,WeatherDisplay:10.37,2013-03-03 16:22:00,
2013-03-03 11:27:00,27.1,20.5,29.85,NW,315,5.0,5.8,76,0.00,,OVC,0.00,WeatherDisplay:10.37,2013-03-03 16:27:00,
2013-03-03 11:32:00,27.0,19.5,29.85,WNW,292,5.6,8.1,73,0.00,,OVC,0.00,WeatherDisplay:10.37,2013-03-03 16:32:00,
2013-03-03 11:37:00,27.1,18.9,29.85,WNW,292,5.0,5.8,71,0.00,,OVC,0.00,WeatherDisplay:10.37,2013-03-03 16:37:00,
2013-03-03 11:42:00,27.5,19.3,29.85,WNW,292,6.3,8.1,71,0.00,,OVC,0.00,WeatherDisplay:10.37,2013-03-03 16:42:00,
2013-03-03 11:47:00,27.5,19.3,29.85,West,270,6.3,6.9,71,0.00,,OVC,0.00,WeatherDisplay:10.37,2013-03-03 16:47:00,
2013-03-03 11:52:00,27.1,18.9,29.85,WNW,292,3.8,5.8,71,0.00,,OVC,0.00,WeatherDisplay:10.37,2013-03-03 16:52:00,
2013-03-03 11:57:00,28.0,19.1,29.85,WNW,292,6.5,9.2,69,0.00,,OVC,0.00,WeatherDisplay:10.37,2013-03-03 16:57:00,
2013-03-03 12:02:00,27.5,18.7,29.85,West,270,5.5,6.8,69,0.00,,OVC,0.00,WeatherDisplay:10.37,2013-03-03 17:02:00,
2013-03-03 12:07:00,27.5,18.7,29.85,WNW,292,6.5,8.3,69,0.00,,OVC,0.00,WeatherDisplay:10.37,2013-03-03 17:07:00,
2013-03-03 12:12:00,27.9,19.0,29.84,West,270,4.8,5.8,69,0.00,,OVC,0.00,WeatherDisplay:10.37,2013-03-03 17:12:00,
2013-03-03 12:17:00,27.9,19.4,29.84,WNW,292,5.6,7.3,70,0.00,,OVC,0.00,WeatherDisplay:10.37,2013-03-03 17:17:00,
2013-03-03 12:22:00,27.7,18.8,29.84,NW,315,6.7,8.1,69,0.00,,OVC,0.00,WeatherDisplay:10.37,2013-03-03 17:22:00,
2013-03-03 12:27:00,27.9,19.4,29.84,West,270,4.8,7.3,70,0.00,,OVC,0.00,WeatherDisplay:10.37,2013-03-03 17:27:00,
2013-03-03 12:32:00,28.0,19.5,29.84,NW,315,4.8,5.8,70,0.00,,OVC,0.00,WeatherDisplay:10.37,2013-03-03 17:32:00,
2013-03-03 12:37:00,28.6,20.1,29.84,NW,315,4.1,4.6,70,0.00,,OVC,0.00,WeatherDisplay:10.37,2013-03-03 17:37:00,
2013-03-03 12:42:00,27.9,19.4,29.84,WNW,292,4.3,4.7,70,0.00,,OVC,0.00,WeatherDisplay:10.37,2013-03-03 17:42:00,
2013-03-03 12:47:00,27.3,19.1,29.84,West,270,6.1,7.3,71,0.00,,OVC,0.00,WeatherDisplay:10.37,2013-03-03 17:47:00,
2013-03-03 12:52:00,28.2,19.3,29.83,West,270,5.6,7.8,69,0.00,,OVC,0.00,WeatherDisplay:10.37,2013-03-03 17:52:00,
2013-03-03 12:57:00,28.2,18.3,29.83,WNW,292,5.4,6.9,66,0.00,,OVC,0.00,WeatherDisplay:10.37,2013-03-03 17:57:00,
2013-03-03 13:02:00,27.9,18.7,29.83,WNW,292,7.5,7.8,68,0.00,,OVC,0.00,WeatherDisplay:10.37,2013-03-03 18:02:00,
2013-03-03 13:07:00,27.7,18.5,29.83,NW,315,8.0,10.4,68,0.00,,OVC,0.00,WeatherDisplay:10.37,2013-03-03 18:07:00,
2013-03-03 13:12:00,27.9,19.0,29.83,NNW,338,6.5,6.9,69,0.00,,OVC,0.00,WeatherDisplay:10.37,2013-03-03 18:12:00,
2013-03-03 13:17:00,27.7,18.5,29.83,WNW,292,6.7,8.1,68,0.00,,OVC,0.00,WeatherDisplay:10.37,2013-03-03 18:17:00,
2013-03-03 13:22:00,28.2,19.3,29.83,WNW,292,5.8,6.3,69,0.00,,OVC,0.00,WeatherDisplay:10.37,2013-03-03 18:22:00,
2013-03-03 13:27:00,27.3,18.8,29.83,West,270,6.0,6.9,70,0.00,,OVC,0.00,WeatherDisplay:10.37,2013-03-03 18:27:00,
2013-03-03 13:32:00,28.0,19.1,29.83,WNW,292,5.9,9.2,69,0.00,,OVC,0.00,WeatherDisplay:10.37,2013-03-03 18:32:00,
2013-03-03 13:37:00,27.5,19.0,29.83,West,270,6.5,10.4,70,0.00,,OVC,0.00,WeatherDisplay:10.37,2013-03-03 18:37:00,
2013-03-03 13:42:00,27.5,19.0,29.83,WNW,292,4.3,5.8,70,0.00,,OVC,0.00,WeatherDisplay:10.37,2013-03-03 18:42:00,
2013-03-03 13:47:00,27.1,18.6,29.83,NW,315,6.5,6.8,70,0.00,,OVC,0.00,WeatherDisplay:10.37,2013-03-03 18:47:00,
2013-03-03 13:52:00,26.8,19.0,29.83,WNW,292,5.8,8.1,72,0.00,,OVC,0.00,WeatherDisplay:10.37,2013-03-03 18:52:00,
2013-03-03 13:57:00,26.8,19.0,29.83,WNW,292,5.1,5.8,72,0.00,,OVC,0.00,WeatherDisplay:10.37,2013-03-03 18:57:00,
2013-03-03 14:02:00,26.4,18.9,29.83,WSW,248,4.9,5.8,73,0.00,,OVC,0.00,WeatherDisplay:10.37,2013-03-03 19:02:00,
2013-03-03 14:07:00,26.4,18.9,29.83,NW,315,4.9,5.8,73,0.00,,OVC,0.00,WeatherDisplay:10.37,2013-03-03 19:07:00,
2013-03-03 14:12:00,26.8,19.3,29.83,NW,315,5.1,5.8,73,0.00,,OVC,0.00,WeatherDisplay:10.37,2013-03-03 19:12:00,
2013-03-03 14:17:00,26.1,18.6,29.83,NW,315,5.5,8.1,73,0.00,,OVC,0.00,WeatherDisplay:10.37,2013-03-03 19:17:00,
2013-03-03 14:22:00,26.2,18.7,29.83,NW,315,5.6,6.9,73,0.00,,OVC,0.00,WeatherDisplay:10.37,2013-03-03 19:22:00,
2013-03-03 14:27:00,26.2,18.7,29.83,WNW,292,6.3,6.9,73,0.00,,OVC,0.00,WeatherDisplay:10.37,2013-03-03 19:27:00,
2013-03-03 14:32:00,25.9,18.7,29.83,WNW,292,5.8,8.1,74,0.00,,OVC,0.00,WeatherDisplay:10.37,2013-03-03 19:32:00,
2013-03-03 14:37:00,26.4,19.2,29.84,NNW,338,4.0,8.1,74,0.00,,OVC,0.00,WeatherDisplay:10.37,2013-03-03 19:37:00,
2013-03-03 14:42:00,26.2,18.7,29.84,NW,315,4.1,8.1,73,0.00,,OVC,0.00,WeatherDisplay:10.37,2013-03-03 19:42:00,
2013-03-03 14:47:00,26.4,18.9,29.83,WNW,292,6.1,6.1,73,0.00,,OVC,0.00,WeatherDisplay:10.37,2013-03-03 19:47:00,
2013-03-03 14:52:00,26.1,18.9,29.83,WNW,292,4.8,5.8,74,0.00,,OVC,0.00,WeatherDisplay:10.37,2013-03-03 19:52:00,
2013-03-03 14:57:00,26.1,18.9,29.83,WNW,292,5.9,6.8,74,0.00,,OVC,0.00,WeatherDisplay:10.37,2013-03-03 19:57:00,
2013-03-03 15:02:00,26.1,18.9,29.83,WNW,292,5.1,5.8,74,0.00,,OVC,0.00,WeatherDisplay:10.37,2013-03-03 20:02:00,
2013-03-03 15:07:00,26.1,18.9,29.83,WNW,292,4.2,4.6,74,0.00,,OVC,0.00,WeatherDisplay:10.37,2013-03-03 20:07:00,
2013-03-03 15:12:00,25.7,18.9,29.84,WNW,292,6.4,6.9,75,0.00,,OVC,0.00,WeatherDisplay:10.37,2013-03-03 20:12:00,
2013-03-03 15:17:00,25.7,19.2,29.84,ESE,112,5.3,5.8,76,0.00,,OVC,0.00,WeatherDisplay:10.37,2013-03-03 20:17:00,
2013-03-03 15:22:00,25.5,19.3,29.84,West,270,5.0,5.0,77,0.00,,OVC,0.00,WeatherDisplay:10.37,2013-03-03 20:22:00,
2013-03-03 15:27:00,25.3,19.1,29.83,WNW,292,5.8,7.3,77,0.00,,OVC,0.00,WeatherDisplay:10.37,2013-03-03 20:27:00,
2013-03-03 15:32:00,25.3,19.1,29.83,WNW,292,3.6,6.9,77,0.00,,OVC,0.00,WeatherDisplay:10.37,2013-03-03 20:32:00,
2013-03-03 15:37:00,25.5,19.3,29.84,NW,315,5.3,5.8,77,0.00,,OVC,0.00,WeatherDisplay:10.37,2013-03-03 20:37:00,
2013-03-03 15:43:00,25.3,19.4,29.84,West,270,5.9,6.8,78,0.00,,OVC,0.00,WeatherDisplay:10.37,2013-03-03 20:43:00,
2013-03-03 15:48:00,25.2,19.3,29.84,WNW,292,4.4,5.8,78,0.00,,OVC,0.00,WeatherDisplay:10.37,2013-03-03 20:48:00,
2013-03-03 15:53:00,25.3,19.7,29.84,WNW,292,4.2,6.9,79,0.00,,OVC,0.00,WeatherDisplay:10.37,2013-03-03 20:53:00,
2013-03-03 15:58:00,25.2,19.3,29.84,NW,315,4.6,6.9,78,0.00,,OVC,0.00,WeatherDisplay:10.37,2013-03-03 20:58:00,
2013-03-03 16:03:00,25.3,19.7,29.84,NW,315,6.1,8.1,79,0.00,,OVC,0.00,WeatherDisplay:10.37,2013-03-03 21:03:00,
2013-03-03 16:08:00,25.3,19.7,29.84,West,270,4.4,8.1,79,0.00,,OVC,0.00,WeatherDisplay:10.37,2013-03-03 21:08:00,
2013-03-03 16:13:00,25.2,19.6,29.84,West,270,5.7,6.9,79,0.00,,OVC,0.00,WeatherDisplay:10.37,2013-03-03 21:13:00,
2013-03-03 16:18:00,25.0,20.0,29.84,WNW,292,6.2,8.1,81,0.00,,OVC,0.00,WeatherDisplay:10.37,2013-03-03 21:18:00,
2013-03-03 16:23:00,25.0,20.3,29.84,WNW,292,7.8,7.8,82,0.00,,OVC,0.00,WeatherDisplay:10.37,2013-03-03 21:23:00,
2013-03-03 16:28:00,25.0,20.6,29.85,West,270,4.5,5.8,83,0.00,,OVC,0.00,WeatherDisplay:10.37,2013-03-03 21:28:00,
2013-03-03 16:33:00,25.0,21.1,29.85,West,270,4.6,5.3,85,0.00,,OVC,0.00,WeatherDisplay:10.37,2013-03-03 21:33:00,
2013-03-03 16:38:00,24.4,20.8,29.85,WNW,292,4.8,5.8,86,0.00,,OVC,0.00,WeatherDisplay:10.37,2013-03-03 21:38:00,
2013-03-03 16:43:00,24.4,20.8,29.85,WNW,292,4.4,5.8,86,0.00,,OVC,0.00,WeatherDisplay:10.37,2013-03-03 21:43:00,
2013-03-03 16:48:00,24.6,20.5,29.85,WNW,292,5.2,5.8,84,0.00,,OVC,0.00,WeatherDisplay:10.37,2013-03-03 21:48:00,
2013-03-03 16:53:00,24.4,20.0,29.85,West,270,4.3,4.7,83,0.00,,OVC,0.00,WeatherDisplay:10.37,2013-03-03 21:53:00,
2013-03-03 16:58:00,24.4,19.7,29.85,NNW,338,4.9,5.8,82,0.00,,OVC,0.00,WeatherDisplay:10.37,2013-03-03 21:58:00,
2013-03-03 17:03:00,24.4,19.7,29.85,West,270,4.3,6.3,82,0.00,,OVC,0.00,WeatherDisplay:10.37,2013-03-03 22:03:00,
2013-03-03 17:08:00,24.3,19.6,29.85,NW,315,5.1,8.1,82,0.00,,OVC,0.00,WeatherDisplay:10.37,2013-03-03 22:08:00,
2013-03-03 17:13:00,24.1,19.7,29.86,West,270,6.2,6.9,83,0.00,,OVC,0.00,WeatherDisplay:10.37,2013-03-03 22:13:00,
2013-03-03 17:18:00,24.1,20.0,29.86,WNW,292,4.5,5.8,84,0.00,,OVC,0.00,WeatherDisplay:10.37,2013-03-03 22:18:00,
2013-03-03 17:23:00,23.9,19.8,29.86,WNW,292,3.7,3.7,84,0.00,,OVC,0.00,WeatherDisplay:10.37,2013-03-03 22:23:00,
2013-03-03 17:28:00,23.9,19.2,29.85,West,270,6.6,7.3,82,0.00,,OVC,0.00,WeatherDisplay:10.37,2013-03-03 22:28:00,
2013-03-03 17:33:00,23.9,19.2,29.85,WNW,292,6.5,6.9,82,0.00,,OVC,0.00,WeatherDisplay:10.37,2013-03-03 22:33:00,
2013-03-03 17:38:00,23.9,19.2,29.86,WNW,292,4.6,5.8,82,0.00,,OVC,0.00,WeatherDisplay:10.37,2013-03-03 22:38:00,
2013-03-03 17:43:00,23.9,19.2,29.86,WNW,292,5.5,8.1,82,0.00,,OVC,0.00,WeatherDisplay:10.37,2013-03-03 22:43:00,
2013-03-03 17:48:00,23.9,19.2,29.86,WNW,292,4.8,5.8,82,0.00,,OVC,0.00,WeatherDisplay:10.37,2013-03-03 22:48:00,
2013-03-03 17:53:00,23.7,19.0,29.86,NW,315,4.3,7.3,82,0.00,,OVC,0.00,WeatherDisplay:10.37,2013-03-03 22:53:00,
2013-03-03 17:58:00,23.7,19.0,29.86,WNW,292,5.2,6.9,82,0.00,,OVC,0.00,WeatherDisplay:10.37,2013-03-03 22:58:00,
2013-03-03 18:03:00,23.7,19.0,29.86,West,270,5.4,8.1,82,0.00,,OVC,0.00,WeatherDisplay:10.37,2013-03-03 23:03:00,
2013-03-03 18:08:00,23.7,19.0,29.86,WNW,292,4.5,5.8,82,0.00,,OVC,0.00,WeatherDisplay:10.37,2013-03-03 23:08:00,
2013-03-03 18:13:00,23.5,19.1,29.86,WNW,292,3.8,4.7,83,0.00,,OVC,0.00,WeatherDisplay:10.37,2013-03-03 23:13:00,
2013-03-03 18:18:00,23.5,19.4,29.86,WNW,292,4.8,5.8,84,0.00,,OVC,0.00,WeatherDisplay:10.37,2013-03-03 23:18:00,
2013-03-03 18:23:00,23.4,19.3,29.86,WNW,292,4.9,5.8,84,0.00,,OVC,0.00,WeatherDisplay:10.37,2013-03-03 23:23:00,
2013-03-03 18:28:00,23.4,19.3,29.86,NW,315,5.6,6.9,84,0.00,,OVC,0.00,WeatherDisplay:10.37,2013-03-03 23:28:00,
2013-03-03 18:33:00,23.4,19.3,29.86,WNW,292,4.3,5.8,84,0.00,,OVC,0.00,WeatherDisplay:10.37,2013-03-03 23:33:00,
2013-03-03 18:38:00,23.4,19.6,29.86,WNW,292,3.2,4.6,85,0.00,,OVC,0.00,WeatherDisplay:10.37,2013-03-03 23:38:00,
2013-03-03 18:43:00,23.2,19.4,29.86,WNW,292,3.8,4.2,85,0.00,,OVC,0.00,WeatherDisplay:10.37,2013-03-03 23:43:00,
2013-03-03 18:48:00,23.2,19.4,29.86,NW,315,3.3,4.2,85,0.00,,OVC,0.00,WeatherDisplay:10.37,2013-03-03 23:48:00,
2013-03-03 18:53:00,23.2,19.4,29.86,WNW,292,5.6,6.8,85,0.00,,OVC,0.00,WeatherDisplay:10.37,2013-03-03 23:53:00,
2013-03-03 18:58:00,23.2,19.4,29.86,West,270,4.8,6.9,85,0.00,,OVC,0.00,WeatherDisplay:10.37,2013-03-03 23:58:00,
2013-03-03 19:03:00,23.2,19.4,29.87,WNW,292,4.6,6.9,85,0.00,,OVC,0.00,WeatherDisplay:10.37,2013-03-04 00:03:00,
2013-03-03 19:08:00,23.0,18.9,29.87,West,270,2.8,3.5,84,0.00,,OVC,0.00,WeatherDisplay:10.37,2013-03-04 00:08:00,
2013-03-03 19:13:00,23.0,18.9,29.87,WNW,292,5.7,6.8,84,0.00,,OVC,0.00,WeatherDisplay:10.37,2013-03-04 00:13:00,
2013-03-03 19:18:00,23.0,18.9,29.87,WNW,292,5.1,5.8,84,0.00,,OVC,0.00,WeatherDisplay:10.37,2013-03-04 00:18:00,
2013-03-03 19:23:00,23.0,19.2,29.87,West,270,3.5,3.5,85,0.00,,OVC,0.00,WeatherDisplay:10.37,2013-03-04 00:23:00,
2013-03-03 19:28:00,23.0,19.4,29.86,West,270,4.7,6.9,86,0.00,,OVC,0.00,WeatherDisplay:10.37,2013-03-04 00:28:00,
2013-03-03 19:33:00,22.8,19.2,29.86,West,270,4.0,5.8,86,0.00,,OVC,0.00,WeatherDisplay:10.37,2013-03-04 00:33:00,
2013-03-03 19:38:00,22.8,19.2,29.87,West,270,4.0,4.6,86,0.00,,OVC,0.00,WeatherDisplay:10.37,2013-03-04 00:38:00,
2013-03-03 19:43:00,22.8,19.5,29.87,WNW,292,5.1,5.8,87,0.00,,OVC,0.00,WeatherDisplay:10.37,2013-03-04 00:43:00,
2013-03-03 19:48:00,22.8,19.5,29.87,WNW,292,4.1,4.6,87,0.00,,OVC,0.00,WeatherDisplay:10.37,2013-03-04 00:48:00,
2013-03-03 19:53:00,22.8,19.5,29.87,WNW,292,4.3,5.8,87,0.00,,OVC,0.00,WeatherDisplay:10.37,2013-03-04 00:53:00,
2013-03-03 19:58:00,22.8,19.8,29.87,WNW,292,3.5,4.6,88,0.00,,OVC,0.00,WeatherDisplay:10.37,2013-03-04 00:58:00,
2013-03-03 20:03:00,22.8,19.8,29.87,WNW,292,4.0,4.6,88,0.00,,OVC,0.00,WeatherDisplay:10.37,2013-03-04 01:03:00,
2013-03-03 20:08:00,22.8,19.8,29.87,WNW,292,5.3,5.8,88,0.00,,OVC,0.00,WeatherDisplay:10.37,2013-03-04 01:08:00,
2013-03-03 20:13:00,22.8,19.8,29.87,SSW,202,2.4,5.8,88,0.00,,OVC,0.00,WeatherDisplay:10.37,2013-03-04 01:13:00,
2013-03-03 20:18:00,22.8,20.0,29.87,WNW,292,3.7,4.6,89,0.00,,OVC,0.00,WeatherDisplay:10.37,2013-03-04 01:18:00,
2013-03-03 20:23:00,22.8,20.0,29.87,West,270,3.2,4.2,89,0.00,,OVC,0.00,WeatherDisplay:10.37,2013-03-04 01:23:00,
2013-03-03 20:28:00,22.8,20.0,29.87,WNW,292,3.6,4.6,89,0.00,,OVC,0.00,WeatherDisplay:10.37,2013-03-04 01:28:00,
2013-03-03 20:33:00,22.8,20.0,29.87,WNW,292,3.2,3.7,89,0.00,,OVC,0.00,WeatherDisplay:10.37,2013-03-04 01:33:00,
2013-03-03 20:38:00,22.8,20.0,29.88,WNW,292,3.6,5.8,89,0.00,,OVC,0.00,WeatherDisplay:10.37,2013-03-04 01:38:00,
2013-03-03 20:43:00,22.8,20.0,29.88,WNW,292,2.5,2.7,89,0.00,,OVC,0.00,WeatherDisplay:10.37,2013-03-04 01:43:00,
2013-03-03 20:48:00,22.8,20.0,29.87,WNW,292,3.1,3.7,89,0.00,,OVC,0.00,WeatherDisplay:10.37,2013-03-04 01:48:00,
2013-03-03 20:53:00,22.8,20.0,29.87,WNW,292,2.3,3.5,89,0.00,,OVC,0.00,WeatherDisplay:10.37,2013-03-04 01:53:00,
2013-03-03 20:58:00,23.0,20.2,29.87,West,270,2.6,3.2,89,0.00,,OVC,0.00,WeatherDisplay:10.37,2013-03-04 01:58:00,
2013-03-03 21:03:00,23.0,20.2,29.87,West,270,2.7,3.5,89,0.00,,OVC,0.00,WeatherDisplay:10.37,2013-03-04 02:03:00,
2013-03-03 21:08:00,23.0,20.2,29.87,WNW,292,5.7,6.9,89,0.00,,OVC,0.00,WeatherDisplay:10.37,2013-03-04 02:08:00,
2013-03-03 21:13:00,23.0,20.2,29.87,West,270,3.7,4.6,89,0.00,,OVC,0.00,WeatherDisplay:10.37,2013-03-04 02:13:00,
2013-03-03 21:18:00,23.0,20.2,29.87,WNW,292,3.7,4.6,89,0.00,,OVC,0.00,WeatherDisplay:10.37,2013-03-04 02:18:00,
2013-03-03 21:23:00,23.0,20.2,29.86,WNW,292,3.0,4.6,89,0.00,,OVC,0.00,WeatherDisplay:10.37,2013-03-04 02:23:00,
2013-03-03 21:28:00,23.2,20.4,29.86,West,270,4.6,5.8,89,0.00,,OVC,0.00,WeatherDisplay:10.37,2013-03-04 02:28:00,
2013-03-03 21:33:00,23.2,20.4,29.86,West,270,3.0,5.8,89,0.00,,OVC,0.00,WeatherDisplay:10.37,2013-03-04 02:33:00,
2013-03-03 21:38:00,23.2,20.4,29.86,West,270,4.3,5.8,89,0.00,,OVC,0.00,WeatherDisplay:10.37,2013-03-04 02:38:00,
2013-03-03 21:43:00,23.4,20.6,29.86,West,270,5.7,7.3,89,0.00,,OVC,0.00,WeatherDisplay:10.37,2013-03-04 02:43:00,
2013-03-03 21:49:00,23.4,20.6,29.86,West,270,5.5,8.1,89,0.00,,OVC,0.00,WeatherDisplay:10.37,2013-03-04 02:49:00,
2013-03-03 21:53:00,23.4,20.6,29.86,West,270,3.4,3.7,89,0.00,,OVC,0.00,WeatherDisplay:10.37,2013-03-04 02:53:00,
2013-03-03 21:59:00,23.4,20.6,29.86,WNW,292,3.7,5.8,89,0.00,,OVC,0.00,WeatherDisplay:10.37,2013-03-04 02:59:00,
2013-03-03 22:04:00,23.4,20.6,29.86,WNW,292,4.2,4.6,89,0.00,,OVC,0.00,WeatherDisplay:10.37,2013-03-04 03:04:00,
2013-03-03 22:09:00,23.5,20.7,29.86,WNW,292,3.7,5.8,89,0.00,,OVC,0.00,WeatherDisplay:10.37,2013-03-04 03:09:00,
2013-03-03 22:14:00,23.5,20.7,29.86,West,270,5.1,6.9,89,0.00,,OVC,0.00,WeatherDisplay:10.37,2013-03-04 03:14:00,
2013-03-03 22:19:00,23.5,20.7,29.86,West,270,4.0,4.2,89,0.00,,OVC,0.00,WeatherDisplay:10.37,2013-03-04 03:19:00,
2013-03-03 22:24:00,23.5,20.7,29.86,West,270,3.1,4.2,89,0.00,,OVC,0.00,WeatherDisplay:10.37,2013-03-04 03:24:00,
2013-03-03 22:29:00,23.7,20.9,29.86,West,270,4.6,5.8,89,0.00,,OVC,0.00,WeatherDisplay:10.37,2013-03-04 03:29:00,
2013-03-03 22:34:00,23.7,20.9,29.86,West,270,3.8,4.6,89,0.00,,OVC,0.00,WeatherDisplay:10.37,2013-03-04 03:34:00,
2013-03-03 22:39:00,23.7,20.9,29.86,West,270,6.1,8.1,89,0.00,,OVC,0.00,WeatherDisplay:10.37,2013-03-04 03:39:00,
2013-03-03 22:44:00,23.9,21.1,29.86,West,270,4.6,4.6,89,0.00,,OVC,0.00,WeatherDisplay:10.37,2013-03-04 03:44:00,
2013-03-03 22:49:00,23.9,21.1,29.86,WNW,292,6.5,6.9,89,0.00,,OVC,0.00,WeatherDisplay:10.37,2013-03-04 03:49:00,
2013-03-03 22:54:00,23.9,21.1,29.86,West,270,3.8,6.9,89,0.00,,OVC,0.00,WeatherDisplay:10.37,2013-03-04 03:54:00,
2013-03-03 22:59:00,23.9,21.1,29.86,WNW,292,4.9,5.8,89,0.00,,OVC,0.00,WeatherDisplay:10.37,2013-03-04 03:59:00,
2013-03-03 23:04:00,23.9,21.4,29.86,West,270,5.1,6.8,90,0.00,,OVC,0.00,WeatherDisplay:10.37,2013-03-04 04:04:00,
2013-03-03 23:09:00,24.1,21.6,29.86,WNW,292,3.5,4.6,90,0.00,,OVC,0.00,WeatherDisplay:10.37,2013-03-04 04:09:00,
2013-03-03 23:14:00,24.1,21.6,29.86,West,270,4.4,5.8,90,0.00,,OVC,0.00,WeatherDisplay:10.37,2013-03-04 04:14:00,
2013-03-03 23:19:00,24.1,21.6,29.86,West,270,2.7,4.6,90,0.00,,OVC,0.00,WeatherDisplay:10.37,2013-03-04 04:19:00,
2013-03-03 23:24:00,24.3,21.8,29.86,West,270,4.2,5.8,90,0.00,,OVC,0.00,WeatherDisplay:10.37,2013-03-04 04:24:00,
2013-03-03 23:29:00,24.3,21.8,29.86,West,270,3.2,3.7,90,0.00,,OVC,0.00,WeatherDisplay:10.37,2013-03-04 04:29:00,
2013-03-03 23:34:00,24.3,21.8,29.86,West,270,5.6,8.1,90,0.00,,OVC,0.00,WeatherDisplay:10.37,2013-03-04 04:34:00,
2013-03-03 23:39:00,24.4,21.6,29.86,West,270,3.1,4.6,89,0.00,,OVC,0.00,WeatherDisplay:10.37,2013-03-04 04:39:00,
2013-03-03 23:44:00,24.4,21.6,29.86,West,270,5.4,6.9,89,0.00,,OVC,0.00,WeatherDisplay:10.37,2013-03-04 04:44:00,
2013-03-03 23:49:00,24.4,21.6,29.85,West,270,4.6,5.8,89,0.00,,OVC,0.00,WeatherDisplay:10.37,2013-03-04 04:49:00,
2013-03-03 23:54:00,24.6,21.8,29.85,West,270,6.8,9.2,89,0.00,,OVC,0.00,WeatherDisplay:10.37,2013-03-04 04:54:00,
2013-03-03 23:59:00,24.6,21.8,29.85,WNW,292,6.0,8.1,89,0.00,,OVC,0.00,WeatherDisplay:10.37,2013-03-04 04:59:00,